FFT1915 KMCO-KCLE

Flight info

Callsign FFT1915
Flight time N/A
Altitude 36000
Route RDSOX1 JFRYS BRUTS Q118 THRSR/N0455F370 SMTTH Q67 HNN JANYS ROLLN2
Aircraft A21N/M-SDE2E3FGHIRWXY/LB1

Departure

Time 2026-04-26 15:35
Airport Orlando International Airport (KMCO)

Arrival

Time N/A
Airport Cleveland Hopkins International Airport (KCLE)
Time Latitude Longitude Altitude Speed Heading
2026-04-26 15:14 28.43597 -81.31305 107 ft 0 kts 166°
2026-04-26 15:23 28.43615 -81.31310 106 ft 4 kts 166°
2026-04-26 15:23 28.43641 -81.31317 107 ft 4 kts 166°
2026-04-26 15:23 28.43662 -81.31323 107 ft 4 kts 172°
2026-04-26 15:23 28.43683 -81.31319 106 ft 4 kts 232°
2026-04-26 15:24 28.43691 -81.31294 105 ft 4 kts 257°
2026-04-26 15:24 28.43693 -81.31283 107 ft 0 kts 257°
2026-04-26 15:29 28.43693 -81.31285 107 ft 2 kts 257°
2026-04-26 15:29 28.43686 -81.31322 107 ft 8 kts 262°
2026-04-26 15:29 28.43795 -81.31444 106 ft 14 kts 336°
2026-04-26 15:30 28.43924 -81.31589 108 ft 17 kts 269°
2026-04-26 15:30 28.43923 -81.31732 111 ft 19 kts 270°
2026-04-26 15:30 28.43960 -81.31875 115 ft 21 kts 339°
2026-04-26 15:31 28.44107 -81.31898 114 ft 22 kts 356°
2026-04-26 15:31 28.44423 -81.31904 112 ft 24 kts 359°
2026-04-26 15:31 28.44591 -81.31905 107 ft 24 kts 360°
2026-04-26 15:32 28.44827 -81.32010 107 ft 26 kts 265°
2026-04-26 15:32 28.44806 -81.32226 107 ft 16 kts 203°
2026-04-26 15:32 28.44769 -81.32229 107 ft 0 kts 179°
2026-04-26 15:34 28.44712 -81.32229 108 ft 32 kts 179°
2026-04-26 15:34 28.44241 -81.32224 115 ft 101 kts 180°
2026-04-26 15:34 28.43341 -81.32219 108 ft 155 kts 179°
2026-04-26 15:34 28.42166 -81.32208 427 ft 167 kts 183°
2026-04-26 15:35 28.40983 -81.32212 941 ft 172 kts 182°
2026-04-26 15:35 28.39757 -81.32293 1406 ft 182 kts 194°
2026-04-26 15:35 28.38565 -81.32866 1839 ft 192 kts 211°
2026-04-26 15:35 28.37397 -81.33680 2362 ft 203 kts 223°
2026-04-26 15:36 28.36641 -81.35070 2839 ft 225 kts 255°
2026-04-26 15:36 28.36593 -81.36963 3237 ft 249 kts 276°
2026-04-26 15:36 28.36844 -81.38918 4025 ft 256 kts 277°
2026-04-26 15:36 28.37105 -81.40935 4934 ft 260 kts 277°
2026-04-26 15:37 28.37355 -81.42978 5810 ft 262 kts 277°
2026-04-26 15:37 28.37592 -81.45046 6666 ft 265 kts 277°
2026-04-26 15:37 28.37824 -81.47131 7492 ft 268 kts 277°
2026-04-26 15:37 28.38055 -81.49240 8278 ft 270 kts 277°
2026-04-26 15:38 28.38286 -81.51372 9081 ft 274 kts 277°
2026-04-26 15:38 28.38517 -81.53534 9896 ft 277 kts 277°
2026-04-26 15:38 28.38757 -81.55782 10361 ft 292 kts 277°
2026-04-26 15:38 28.39010 -81.58141 10630 ft 312 kts 277°
2026-04-26 15:39 28.39276 -81.60631 10876 ft 331 kts 277°
2026-04-26 15:39 28.39561 -81.63306 11120 ft 351 kts 277°
2026-04-26 15:39 28.39862 -81.66124 11340 ft 369 kts 278°
2026-04-26 15:39 28.40075 -81.68112 11497 ft 380 kts 277°
2026-04-26 15:40 28.40501 -81.72142 11999 ft 393 kts 277°
2026-04-26 15:40 28.40822 -81.75232 12539 ft 395 kts 278°
2026-04-26 15:40 28.41149 -81.78348 13136 ft 398 kts 278°
2026-04-26 15:40 28.41476 -81.81486 13728 ft 402 kts 278°
2026-04-26 15:41 28.41807 -81.84647 14227 ft 404 kts 278°
2026-04-26 15:41 28.42138 -81.87831 14722 ft 407 kts 278°
2026-04-26 15:41 28.42464 -81.91040 15253 ft 411 kts 277°
2026-04-26 15:41 28.42616 -81.94303 15784 ft 415 kts 273°
2026-04-26 15:42 28.42672 -81.97589 16327 ft 418 kts 272°
2026-04-26 15:42 28.42719 -82.00898 16823 ft 421 kts 272°
2026-04-26 15:42 28.42772 -82.04240 17336 ft 424 kts 273°
2026-04-26 15:42 28.42823 -82.07560 17828 ft 427 kts 272°
2026-04-26 15:43 28.42872 -82.10943 18303 ft 430 kts 273°
2026-04-26 15:43 28.42928 -82.14350 18725 ft 432 kts 273°
2026-04-26 15:43 28.43032 -82.21227 19613 ft 437 kts 272°
2026-04-26 15:44 28.43083 -82.24681 20081 ft 439 kts 272°
2026-04-26 15:44 28.43184 -82.31672 21016 ft 445 kts 272°
2026-04-26 15:44 28.43238 -82.35204 21566 ft 447 kts 273°
2026-04-26 15:45 28.44380 -82.42127 22551 ft 450 kts 292°
2026-04-26 15:45 28.45812 -82.45300 23021 ft 453 kts 302°
2026-04-26 15:46 28.50225 -82.50416 23852 ft 459 kts 324°
2026-04-26 15:46 28.53021 -82.52156 24320 ft 459 kts 334°
2026-04-26 15:46 28.55941 -82.53517 24803 ft 458 kts 336°
2026-04-26 15:46 28.57938 -82.54417 25135 ft 456 kts 336°
2026-04-26 15:47 28.61818 -82.56187 25771 ft 454 kts 336°
2026-04-26 15:47 28.67665 -82.58892 26724 ft 451 kts 335°
2026-04-26 15:47 28.70567 -82.60240 27203 ft 449 kts 335°
2026-04-26 15:48 28.73450 -82.61583 27660 ft 447 kts 335°
2026-04-26 15:48 28.76328 -82.62924 28142 ft 446 kts 335°
2026-04-26 15:48 28.79196 -82.64261 28601 ft 444 kts 335°
2026-04-26 15:48 28.82056 -82.65594 29052 ft 443 kts 335°
2026-04-26 15:49 28.84905 -82.66921 29513 ft 441 kts 335°
2026-04-26 15:49 28.87744 -82.68246 29945 ft 440 kts 335°
2026-04-26 15:49 28.90574 -82.69571 30328 ft 438 kts 335°
2026-04-26 15:49 28.93388 -82.70888 30719 ft 435 kts 335°
2026-04-26 15:50 28.96182 -82.72193 31112 ft 433 kts 335°
2026-04-26 15:50 28.98959 -82.73490 31492 ft 430 kts 335°
2026-04-26 15:50 29.01690 -82.74768 31861 ft 427 kts 335°
2026-04-26 15:50 29.04433 -82.76052 32224 ft 425 kts 335°
2026-04-26 15:51 29.07162 -82.77330 32598 ft 423 kts 335°
2026-04-26 15:51 29.09879 -82.78604 32919 ft 421 kts 334°
2026-04-26 15:51 29.12581 -82.79872 33225 ft 419 kts 334°
2026-04-26 15:51 29.15283 -82.81138 33522 ft 418 kts 334°
2026-04-26 15:52 29.17967 -82.82401 33821 ft 416 kts 334°
2026-04-26 15:52 29.20651 -82.83663 34086 ft 415 kts 334°
2026-04-26 15:52 29.23316 -82.84918 34304 ft 414 kts 334°
2026-04-26 15:52 29.25080 -82.85748 34447 ft 413 kts 334°
2026-04-26 15:53 29.28589 -82.87398 34729 ft 411 kts 334°
2026-04-26 15:53 29.31267 -82.88659 34928 ft 410 kts 334°
2026-04-26 15:53 29.33899 -82.89900 35127 ft 409 kts 334°
2026-04-26 15:53 29.36500 -82.91126 35353 ft 407 kts 334°
2026-04-26 15:54 29.39117 -82.92360 35584 ft 405 kts 334°
2026-04-26 15:54 29.41718 -82.93586 35794 ft 403 kts 335°
2026-04-26 15:54 29.44305 -82.94808 35973 ft 402 kts 335°
2026-04-26 15:55 29.49473 -82.97252 36017 ft 400 kts 335°
2026-04-26 15:55 29.54622 -82.99694 35980 ft 400 kts 334°
2026-04-26 15:56 29.59764 -83.02143 35973 ft 400 kts 334°
2026-04-26 15:56 29.64912 -83.04596 35994 ft 400 kts 334°
2026-04-26 15:57 29.69986 -83.07026 35976 ft 396 kts 334°
2026-04-26 15:57 29.75075 -83.09471 35972 ft 397 kts 334°
2026-04-26 15:58 29.80181 -83.11906 35969 ft 397 kts 334°
2026-04-26 15:58 29.85292 -83.14345 35969 ft 397 kts 334°
2026-04-26 15:59 29.89537 -83.16372 35955 ft 399 kts 334°
2026-04-26 15:59 29.95516 -83.19241 35987 ft 397 kts 334°
2026-04-26 16:00 29.99766 -83.21281 35970 ft 395 kts 334°
2026-04-26 16:00 30.04802 -83.23697 35968 ft 394 kts 334°
2026-04-26 16:01 30.09863 -83.26151 35968 ft 394 kts 334°
2026-04-26 16:01 30.14928 -83.28613 35968 ft 395 kts 334°
2026-04-26 16:02 30.20000 -83.31053 35965 ft 395 kts 334°
2026-04-26 16:02 30.25068 -83.33490 35974 ft 392 kts 334°
2026-04-26 16:03 30.30111 -83.35922 35966 ft 391 kts 334°
2026-04-26 16:03 30.35132 -83.38347 35966 ft 391 kts 334°
2026-04-26 16:04 30.40133 -83.40764 35965 ft 391 kts 334°
2026-04-26 16:04 30.45157 -83.43218 35967 ft 391 kts 334°
2026-04-26 16:05 30.50182 -83.45657 35966 ft 391 kts 334°
2026-04-26 16:05 30.55213 -83.48093 35964 ft 392 kts 334°
2026-04-26 16:06 30.60242 -83.50532 35963 ft 392 kts 334°
2026-04-26 16:06 30.65267 -83.52978 35963 ft 391 kts 334°
2026-04-26 16:07 30.70310 -83.55445 35955 ft 396 kts 334°
2026-04-26 16:07 30.75352 -83.57903 35965 ft 396 kts 334°
2026-04-26 16:08 30.80442 -83.60363 35997 ft 396 kts 333°
2026-04-26 16:08 30.85486 -83.62823 35978 ft 392 kts 333°
2026-04-26 16:09 30.90511 -83.65281 35979 ft 392 kts 333°
2026-04-26 16:09 30.95538 -83.67742 35976 ft 392 kts 333°
2026-04-26 16:10 31.00531 -83.70192 35978 ft 392 kts 333°
2026-04-26 16:10 31.05558 -83.72665 35980 ft 392 kts 333°
2026-04-26 16:11 31.10581 -83.75131 35995 ft 391 kts 333°
2026-04-26 16:11 31.15577 -83.77587 35983 ft 389 kts 333°
2026-04-26 16:12 31.20571 -83.80052 35981 ft 389 kts 333°
2026-04-26 16:12 31.28061 -83.83750 35975 ft 390 kts 333°
2026-04-26 16:13 31.33037 -83.86207 35973 ft 390 kts 333°
2026-04-26 16:13 31.38037 -83.88680 35997 ft 390 kts 333°
2026-04-26 16:14 31.43003 -83.91142 35984 ft 386 kts 333°
2026-04-26 16:15 31.50439 -83.94827 35985 ft 387 kts 333°
2026-04-26 16:15 31.55665 -83.96540 35986 ft 394 kts 343°
2026-04-26 16:16 31.63762 -83.98302 35986 ft 394 kts 343°
2026-04-26 16:16 31.69136 -83.99490 35978 ft 391 kts 343°
2026-04-26 16:17 31.74484 -84.00679 35975 ft 391 kts 343°
2026-04-26 16:17 31.79795 -84.01862 35978 ft 391 kts 343°
2026-04-26 16:18 31.87805 -84.03651 35983 ft 391 kts 343°
2026-04-26 16:19 31.95826 -84.05441 35992 ft 390 kts 342°
2026-04-26 16:20 32.03810 -84.07228 35966 ft 389 kts 342°
2026-04-26 16:20 32.11800 -84.09019 35965 ft 389 kts 342°
2026-04-26 16:21 32.17120 -84.10214 35970 ft 389 kts 342°
2026-04-26 16:21 32.22448 -84.11412 35988 ft 389 kts 342°
2026-04-26 16:22 32.27763 -84.12609 35970 ft 388 kts 342°
2026-04-26 16:22 32.33029 -84.13794 35962 ft 388 kts 342°
2026-04-26 16:23 32.38334 -84.14992 35956 ft 388 kts 342°
2026-04-26 16:23 32.43634 -84.16189 35955 ft 388 kts 342°
2026-04-26 16:24 32.48937 -84.17390 35987 ft 387 kts 341°
2026-04-26 16:24 32.54220 -84.18585 35962 ft 386 kts 341°
2026-04-26 16:25 32.59500 -84.19784 35954 ft 386 kts 341°
2026-04-26 16:25 32.64772 -84.20978 35968 ft 386 kts 341°
2026-04-26 16:26 32.69154 -84.21976 35979 ft 386 kts 341°
2026-04-26 16:26 32.75283 -84.23375 35994 ft 386 kts 341°
2026-04-26 16:27 32.80561 -84.24577 36021 ft 387 kts 341°
2026-04-26 16:27 32.85849 -84.25782 36013 ft 387 kts 341°
2026-04-26 16:28 32.91137 -84.26992 36017 ft 387 kts 341°
2026-04-26 16:28 32.96424 -84.28197 36021 ft 387 kts 341°
2026-04-26 16:29 33.01716 -84.29409 36012 ft 388 kts 341°
2026-04-26 16:29 33.06992 -84.30613 35986 ft 384 kts 340°
2026-04-26 16:30 33.12239 -84.31818 35989 ft 384 kts 340°
2026-04-26 16:30 33.17486 -84.33029 36008 ft 384 kts 340°
2026-04-26 16:31 33.22701 -84.34226 36017 ft 384 kts 340°
2026-04-26 16:31 33.27957 -84.35437 36042 ft 384 kts 340°
2026-04-26 16:32 33.32317 -84.36442 36042 ft 384 kts 340°
2026-04-26 16:32 33.38450 -84.37859 36002 ft 384 kts 340°
2026-04-26 16:33 33.43704 -84.39073 36008 ft 384 kts 340°
2026-04-26 16:33 33.48947 -84.40287 36009 ft 384 kts 340°
2026-04-26 16:34 33.54191 -84.41502 36022 ft 384 kts 340°
2026-04-26 16:34 33.59457 -84.42732 36017 ft 389 kts 340°
2026-04-26 16:35 33.64950 -84.43184 36013 ft 413 kts 356°
2026-04-26 16:35 33.70687 -84.42141 36006 ft 417 kts 359°
2026-04-26 16:36 33.76422 -84.41056 36006 ft 417 kts 358°
2026-04-26 16:36 33.82156 -84.39992 36006 ft 417 kts 358°
2026-04-26 16:37 33.87905 -84.38937 36006 ft 418 kts 358°
2026-04-26 16:37 33.92692 -84.38053 36015 ft 420 kts 358°
2026-04-26 16:38 33.99413 -84.36808 35999 ft 419 kts 358°
2026-04-26 16:38 34.05174 -84.35739 35986 ft 418 kts 358°
2026-04-26 16:39 34.10931 -84.34667 36007 ft 419 kts 359°
2026-04-26 16:39 34.16714 -84.33602 35986 ft 420 kts 359°
2026-04-26 16:40 34.22499 -84.32514 35982 ft 420 kts 359°
2026-04-26 16:40 34.28281 -84.31438 35982 ft 420 kts 359°
2026-04-26 16:41 34.34025 -84.30372 35987 ft 420 kts 359°
2026-04-26 16:41 34.39824 -84.29294 35995 ft 421 kts 359°
2026-04-26 16:42 34.45625 -84.28237 35991 ft 422 kts 359°
2026-04-26 16:42 34.51430 -84.27160 35996 ft 421 kts 359°
2026-04-26 16:43 34.57222 -84.26077 35999 ft 422 kts 359°
2026-04-26 16:43 34.63031 -84.24990 36018 ft 421 kts 360°
2026-04-26 16:44 34.68821 -84.23903 36020 ft 421 kts 360°
2026-04-26 16:44 34.73638 -84.22997 36025 ft 422 kts 360°
2026-04-26 16:45 34.79434 -84.21906 36029 ft 420 kts
2026-04-26 16:45 34.86166 -84.20638 36061 ft 422 kts
2026-04-26 16:46 34.91027 -84.19718 36044 ft 422 kts
2026-04-26 16:46 34.96843 -84.18601 36034 ft 422 kts
2026-04-26 16:47 35.02604 -84.17514 36032 ft 422 kts
2026-04-26 16:47 35.08406 -84.16432 36030 ft 422 kts
2026-04-26 16:48 35.14208 -84.15327 36037 ft 421 kts
2026-04-26 16:48 35.20001 -84.14223 36030 ft 421 kts
2026-04-26 16:49 35.25798 -84.13097 36034 ft 421 kts
2026-04-26 16:49 35.31600 -84.12001 36029 ft 421 kts
2026-04-26 16:50 35.37372 -84.10916 36047 ft 422 kts
2026-04-26 16:50 35.43179 -84.09807 36031 ft 422 kts
2026-04-26 16:51 35.48987 -84.08674 36030 ft 422 kts
2026-04-26 16:51 35.54790 -84.07565 36034 ft 422 kts
2026-04-26 16:52 35.59622 -84.06651 36036 ft 422 kts
2026-04-26 16:52 35.66383 -84.05357 36051 ft 423 kts
2026-04-26 16:53 35.72201 -84.04214 36054 ft 423 kts
2026-04-26 16:53 35.78035 -84.03097 36051 ft 423 kts
2026-04-26 16:54 35.83861 -84.01982 36050 ft 423 kts
2026-04-26 16:54 35.89671 -84.00761 36078 ft 427 kts
2026-04-26 16:55 35.92519 -83.99549 36073 ft 439 kts 17°
2026-04-26 16:55 35.95233 -83.97746 36074 ft 446 kts 22°
2026-04-26 16:55 36.00592 -83.93856 36074 ft 446 kts 22°
2026-04-26 16:56 36.08611 -83.88103 36078 ft 446 kts 22°
2026-04-26 16:57 36.13973 -83.84263 36071 ft 444 kts 22°
2026-04-26 16:57 36.22003 -83.78519 36056 ft 444 kts 22°
2026-04-26 16:58 36.26446 -83.75330 36043 ft 443 kts 22°
2026-04-26 16:58 36.32668 -83.70854 35684 ft 444 kts 22°
2026-04-26 16:59 36.35342 -83.68932 35478 ft 443 kts 22°
2026-04-26 16:59 36.40687 -83.65084 35046 ft 445 kts 23°
2026-04-26 17:00 36.46041 -83.61194 35021 ft 446 kts 23°
2026-04-26 17:00 36.54034 -83.55373 35039 ft 446 kts 23°
2026-04-26 17:01 36.59387 -83.51498 35060 ft 446 kts 24°
2026-04-26 17:01 36.64755 -83.47603 35044 ft 446 kts 24°
2026-04-26 17:02 36.70121 -83.43690 35038 ft 446 kts 24°
2026-04-26 17:02 36.75485 -83.39787 35033 ft 446 kts 24°
2026-04-26 17:03 36.80838 -83.35858 35058 ft 446 kts 25°
2026-04-26 17:03 36.86192 -83.31930 35063 ft 447 kts 25°
2026-04-26 17:04 36.91558 -83.28011 35043 ft 447 kts 25°
2026-04-26 17:04 36.96910 -83.24096 35048 ft 446 kts 25°
2026-04-26 17:05 37.02222 -83.20191 35050 ft 446 kts 25°
2026-04-26 17:05 37.07563 -83.16239 35055 ft 446 kts 25°
2026-04-26 17:06 37.12900 -83.12281 35057 ft 447 kts 26°
2026-04-26 17:06 37.18255 -83.08310 35053 ft 447 kts 26°
2026-04-26 17:07 37.23602 -83.04335 35051 ft 447 kts 26°
2026-04-26 17:07 37.29044 -83.00611 35091 ft 445 kts 23°
2026-04-26 17:08 37.34533 -82.97013 35091 ft 445 kts 23°
2026-04-26 17:08 37.40033 -82.93414 35084 ft 445 kts 23°
2026-04-26 17:09 37.44600 -82.90414 35081 ft 445 kts 23°
2026-04-26 17:09 37.51019 -82.86177 35113 ft 446 kts 23°
2026-04-26 17:10 37.56516 -82.82553 35100 ft 446 kts 23°
2026-04-26 17:10 37.61977 -82.78956 35102 ft 446 kts 23°
2026-04-26 17:11 37.67480 -82.75315 35114 ft 447 kts 24°
2026-04-26 17:11 37.73007 -82.71659 35129 ft 448 kts 24°
2026-04-26 17:12 37.81280 -82.66151 35119 ft 448 kts 24°
2026-04-26 17:13 37.89566 -82.60637 35114 ft 448 kts 24°
2026-04-26 17:14 37.97812 -82.55128 35088 ft 448 kts 24°
2026-04-26 17:14 38.06093 -82.49590 35095 ft 448 kts 24°
2026-04-26 17:15 38.14366 -82.44046 35100 ft 448 kts 24°
2026-04-26 17:16 38.19892 -82.40329 35103 ft 449 kts 25°
2026-04-26 17:16 38.25379 -82.36625 35102 ft 449 kts 25°
2026-04-26 17:17 38.30907 -82.32900 35102 ft 449 kts 25°
2026-04-26 17:17 38.36437 -82.29167 35100 ft 449 kts 25°
2026-04-26 17:18 38.41956 -82.25420 35111 ft 449 kts 25°
2026-04-26 17:18 38.47486 -82.21672 35107 ft 450 kts 25°
2026-04-26 17:19 38.55765 -82.16042 35111 ft 450 kts 25°
2026-04-26 17:19 38.61295 -82.12275 35114 ft 450 kts 25°
2026-04-26 17:20 38.64952 -82.09781 35116 ft 450 kts 25°
2026-04-26 17:20 38.72311 -82.04764 35118 ft 449 kts 24°
2026-04-26 17:21 38.75202 -82.03282 35114 ft 445 kts 13°
2026-04-26 17:21 38.78231 -82.02581 35126 ft 441 kts
2026-04-26 17:21 38.84351 -82.02451 35129 ft 439 kts 358°
2026-04-26 17:22 38.90462 -82.02392 35143 ft 439 kts 358°
2026-04-26 17:22 38.96578 -82.02295 35156 ft 439 kts 358°
2026-04-26 17:23 39.02692 -82.02190 35161 ft 439 kts 358°
2026-04-26 17:23 39.08808 -82.02093 35166 ft 439 kts 358°
2026-04-26 17:24 39.14883 -82.01984 35165 ft 439 kts 358°
2026-04-26 17:24 39.20986 -82.01879 35157 ft 439 kts 358°
2026-04-26 17:25 39.27088 -82.01775 35158 ft 438 kts 358°
2026-04-26 17:25 39.33180 -82.01686 35161 ft 435 kts 358°